Yangon, Myanmar

8:40 AM +0630 on May 24, 2018 (GMT +0630)
Yangon International

Weather History for VYYY - May, 2018

Change the Weather History Date:

Thursday, May 17, 2018

  Actual Average Record
Temperature  
Mean Temperature 85 °F -  
Max Temperature 97 °F - - ()
Min Temperature 73 °F - - ()
Cooling Degree Days 20    
Growing Degree Days 35 (Base 50)    
Moisture  
Dew Point 75 °F    
Average Humidity 67    
Maximum Humidity 89    
Minimum Humidity 43    
Precipitation  
Precipitation 0.00 in - - ()
Sea Level Pressure  
Sea Level Pressure 29.73 in    
Wind  
Wind Speed 5 mph ()    
Max Wind Speed 13 mph    
Max Gust Speed -    
Visibility 4.4 miles    
Events      
T = Trace of Precipitation, MM = Missing Value Source: Averaged Metar Reports

Daily Weather History Graph

Daily Weather History Graph

Search for Another Location

Airport or City:

Astronomy

May. 17, 2018 Rise Set
Actual Time 5:33 AM +0630 6:30 PM +0630
Civil Twilight 5:10 AM +0630 6:53 PM +0630
Nautical Twilight 4:43 AM +0630 7:20 PM +0630
Astronomical Twilight 4:15 AM +0630 7:48 PM +0630
Moon 7:09 AM +0630 (5/17) 8:28 PM +0630 (5/17)
Length of Visible Light 13h 42m
Length of Day
12h 56m
Waxing Crescent, 4% of the Moon is Illuminated
May 17
Waxing Crescent
May 22
First Quarter
May 29
Full
Jun 7
Last Quarter
Jun 14
New

Hourly Weather History & Observations

Time (+0630) Temp. Heat Index Dew Point Humidity Pressure Visibility Wind Dir Wind Speed Gust Speed Precip Events Conditions
12:00 AM 82.4 °F 90.9 °F 77.0 °F 84% 29.74 in 3.7 mi SW 3.5 mph - N/A   Scattered Clouds
12:30 AM 82.4 °F 90.9 °F 77.0 °F 84% 29.74 in 3.7 mi SW 3.5 mph - N/A   Scattered Clouds
1:00 AM 82.4 °F 90.9 °F 77.0 °F 84% 29.74 in 3.7 mi SSW 3.5 mph - N/A   Scattered Clouds
2:00 AM 82.4 °F 90.9 °F 77.0 °F 84% 29.74 in 3.7 mi SSW 4.6 mph - N/A   Scattered Clouds
3:00 AM 80.6 °F 86.2 °F 75.2 °F 84% 29.71 in 3.7 mi SW 3.5 mph - N/A   Scattered Clouds
3:30 AM 80.6 °F 86.2 °F 75.2 °F 84% 29.71 in 3.7 mi WSW 3.5 mph - N/A   Scattered Clouds
4:00 AM 80.6 °F 86.2 °F 75.2 °F 84% 29.71 in 3.7 mi SSW 3.5 mph - N/A   Scattered Clouds
4:30 AM 80.6 °F 86.2 °F 75.2 °F 84% 29.74 in 3.7 mi SW 3.5 mph - N/A   Scattered Clouds
5:00 AM 80.6 °F 86.2 °F 75.2 °F 84% 29.74 in 3.7 mi SW 2.3 mph - N/A   Scattered Clouds
5:30 AM 80.6 °F 87.1 °F 77.0 °F 89% 29.74 in 4.3 mi SSE 2.3 mph - N/A   Scattered Clouds
6:00 AM 80.6 °F 87.1 °F 77.0 °F 89% 29.74 in 4.3 mi SSW 2.3 mph - N/A   Scattered Clouds
6:30 AM 80 °F - 76 °F 83% 29.77 in 4 mi NE 1.2 mph - -   Scattered Clouds
6:30 AM 80.6 °F 86.2 °F 75.2 °F 84% 29.74 in 4.3 mi South 2.3 mph - N/A   Scattered Clouds
7:00 AM 82.4 °F 89.5 °F 75.2 °F 79% 29.77 in 4.3 mi South 4.6 mph - N/A   Scattered Clouds
7:30 AM 84.2 °F 92.3 °F 75.2 °F 74% 29.77 in 4.3 mi South 4.6 mph - N/A   Scattered Clouds
8:00 AM 84.2 °F 92.3 °F 75.2 °F 74% 29.77 in 4.3 mi WSW 4.6 mph - N/A   Scattered Clouds
8:30 AM 86.0 °F 95.1 °F 75.2 °F 70% 29.80 in 5.0 mi SW 4.6 mph - N/A   Scattered Clouds
9:00 AM 87.8 °F 97.6 °F 75.2 °F 66% 29.80 in 5.0 mi SSW 4.6 mph - N/A   Scattered Clouds
9:30 AM 91 °F - 76 °F 53% 29.80 in 4 mi SW 2.3 mph - -   Partly Cloudy
10:00 AM 89.6 °F 99.8 °F 75.2 °F 62% 29.80 in 5.0 mi South 5.8 mph - N/A   Mostly Cloudy
10:30 AM 91.4 °F 102.5 °F 75.2 °F 59% 29.80 in 5.0 mi WSW 5.8 mph - N/A   Scattered Clouds
11:00 AM 93.2 °F 105.0 °F 75.2 °F 56% 29.80 in 5.0 mi WSW 6.9 mph - N/A   Scattered Clouds
11:35 AM 93.2 °F 105.0 °F 75.2 °F 56% 29.77 in 5.0 mi West 6.9 mph - N/A   Scattered Clouds
12:00 PM 95.0 °F 107.4 °F 75.2 °F 53% 29.77 in 5.0 mi SSW 5.8 mph - N/A   Partly Cloudy
12:30 PM 95 °F - 75 °F 43% 29.78 in 4 mi South 2.3 mph - -   Partly Cloudy
1:00 PM 96.8 °F 109.6 °F 75.2 °F 50% 29.74 in 5.0 mi West 5.8 mph - N/A   Partly Cloudy
1:30 PM 96.8 °F 109.6 °F 75.2 °F 50% 29.74 in 5.0 mi SSE 11.5 mph - N/A   Partly Cloudy
2:00 PM 96.8 °F 109.6 °F 75.2 °F 50% 29.71 in 5.0 mi SSE 9.2 mph - N/A   Partly Cloudy
2:30 PM 96.8 °F 109.6 °F 75.2 °F 50% 29.68 in 5.0 mi SSW 9.2 mph - N/A   Partly Cloudy
3:00 PM 96.8 °F 109.6 °F 75.2 °F 50% 29.68 in 5.0 mi SSE 9.2 mph - N/A   Scattered Clouds
3:30 PM 95.0 °F 107.4 °F 75.2 °F 53% 29.68 in 5.0 mi South 11.5 mph - N/A   Partly Cloudy
4:00 PM 95.0 °F 107.4 °F 75.2 °F 53% 29.68 in 5.0 mi SSW 12.7 mph - N/A   Partly Cloudy
4:30 PM 93.2 °F 105.0 °F 75.2 °F 56% 29.65 in 5.0 mi South 11.5 mph - N/A   Partly Cloudy
5:03 PM 93.2 °F 105.0 °F 75.2 °F 56% 29.65 in 5.0 mi South 10.4 mph - N/A   Partly Cloudy
5:30 PM 93.2 °F 105.0 °F 75.2 °F 56% 29.68 in 5.0 mi South 9.2 mph - N/A   Partly Cloudy
6:00 PM 91.4 °F 102.5 °F 75.2 °F 59% 29.68 in 5.0 mi South 10.4 mph - N/A   Partly Cloudy
6:30 PM 90 °F - 74 °F 52% 29.71 in 4 mi WSW 2.3 mph - -   Scattered Clouds
6:30 PM 91.4 °F 102.5 °F 75.2 °F 59% 29.68 in 4.3 mi South 11.5 mph - N/A   Partly Cloudy
7:00 PM 89.6 °F 102.2 °F 77.0 °F 66% 29.68 in 4.3 mi SW 4.6 mph - N/A   Scattered Clouds
7:30 PM 89.6 °F 102.2 °F 77.0 °F 66% 29.71 in 4.3 mi South 9.2 mph - N/A   Scattered Clouds
8:30 PM 86.0 °F 95.1 °F 75.2 °F 70% 29.74 in 4.3 mi South 6.9 mph - N/A   Partly Cloudy
10:30 PM 84.2 °F 90.9 °F 73.4 °F 70% 29.77 in 4.3 mi South 9.2 mph - N/A   Partly Cloudy
11:30 PM 84.2 °F 90.9 °F 73.4 °F 70% 29.74 in 4.3 mi SSW 10.4 mph - N/A   Partly Cloudy